Preview of NWS' New Version of Forecast
This preview is not operational and should not be used for support decisions.
Latest weather observations around

San Francisco, San Francisco International Airport (KSFO)

Using English Units (Switch to International System of Units)
Date/ Time (PDT) Wind (mph) Vis. (mi) Weather Sky Cond. Temp (°F) Rel. Humidity Wind Chill (°F) Heat Index (°F) Pressure Precip. (in)
Air Dwpt 6 hour Altimeter (inHg) Sea level (inHg) 1 hr 3 hr 6 hr
Max Min
Jun 25 17:56 W 16 10 Mostly Clear FEW011 67 50     55%     29.84 29.84      
Jun 25 16:56   10 Partly Cloudy SCT200 70 50     49%     29.84 29.84      
Jun 25 15:56 WNW 20 10 Partly Cloudy and Windy FEW180 SCT200 71 51     49%   70 29.85 29.85      
Jun 25 14:56 W 20 10 Mostly Cloudy and Windy FEW180 BKN200 71 50     47%   70 29.86 29.86      
Jun 25 13:56 W 15 10 Mostly Cloudy BKN200 72 49     44%   71 29.87 29.87      
Jun 25 12:56 W 17 10 Mostly Cloudy BKN200 72 48     43%   71 29.87 29.87      
Jun 25 11:56 WNW 14 10 Mostly Clear FEW200 70 50     49%     29.87 29.87      
Jun 25 10:56 NW 13 9 Mostly Clear FEW200 68 50     53%     29.87 29.86      
Jun 25 09:56 WNW 13 9 Mostly Clear FEW010 FEW200 66 52     61%     29.86 29.86      
Jun 25 08:56 NW 10 9 Mostly Clear FEW010 FEW200 65 52     63%     29.87 29.87      
Jun 25 07:56 NW 9 10 Mostly Clear FEW010 FEW200 61 51     70%     29.85 29.85      
Jun 25 06:56 WNW 8 10 Mostly Clear FEW010 FEW200 59 51     75%     29.83 29.83      
Jun 25 05:56 NW 8 10 Mostly Clear FEW010 FEW200 57 51     81%     29.83 29.83      
Jun 25 04:56 NW 7 10 Mostly Clear FEW013 FEW200 57 51     81%     29.82 29.82      
Jun 25 03:56 WNW 8 10 Partly Cloudy FEW013 SCT200 56 51     84%     29.83 29.83      
Jun 25 02:56 WNW 7 10 Clear   59 51     75%     29.82 29.82      
Jun 25 01:56 NW 7 10 Partly Cloudy SCT200 58 50     75%     29.83 29.83      
Jun 25 00:56 WNW 6 10 Partly Cloudy SCT200 58 50     75%     29.83 29.83      
Jun 24 23:56 WNW 8 10 Partly Cloudy SCT200 58 50     75%     29.83 29.83      
Jun 24 22:56 NW 11 10 Partly Cloudy SCT200 61 51     70%     29.84 29.83      
Jun 24 21:56 WNW 11 10 Partly Cloudy SCT200 61 50     67%     29.83 29.83      
Jun 24 20:56 WNW 16 10 Mostly Cloudy FEW180 BKN200 61 49     64%     29.82 29.82      
Jun 24 19:56 WNW 16 10 Mostly Cloudy FEW012 BKN200 61 52     72%     29.83 29.83      
Jun 24 18:56   10 Mostly Cloudy FEW008 BKN200 64 53     67%     29.82 29.82      
Jun 24 17:56   10 Clear   66 54     65%     29.82 29.82      
Jun 24 16:56 WNW 18 10 Mostly Cloudy FEW009 BKN200 67 53     61%     29.83 29.83      
Jun 24 15:56 WNW 21 10 Mostly Cloudy and Windy FEW009 BKN200 69 54     59%     29.84 29.83      
Jun 24 14:56 WNW 18 10 Clear   70 54     57%     29.85 29.85      
Jun 24 13:56 WNW 15 10 Mostly Cloudy FEW008 BKN200 72 55     55%   71 29.86 29.86      
Jun 24 12:56 NW 10 9 Mostly Cloudy FEW008 BKN200 72 58     61%   72 29.87 29.87      
Jun 24 11:56 N 7 10 Mostly Cloudy FEW008 BKN200 69 58     68%     29.89 29.88      
Jun 24 10:56 NNE 7 10 Mostly Cloudy FEW008 BKN200 67 57     71%     29.89 29.89      
Jun 24 09:56 NNE 7 10 Mostly Cloudy FEW007 BKN200 65 57     76%     29.9 29.9      
Jun 24 08:56 NE 5 10 Mostly Cloudy FEW007 BKN200 61 56     83%     29.9 29.9      
Jun 24 07:56 Calm 10 Partly Cloudy FEW007 SCT200 61 54     78%     29.89 29.89      
Jun 24 06:56 Calm 10 Partly Cloudy FEW007 SCT200 58 54     87%     29.88 29.88      
Jun 24 05:56 W 7 10 Partly Cloudy FEW006 SCT200 55 53     93%     29.88 29.88      
Jun 24 04:56 WSW 5 10 Mostly Clear FEW006 FEW200 55 53     93%     29.88 29.88      
Jun 24 03:56 W 7 10 Mostly Clear FEW005 FEW200 56 53     90%     29.88 29.88      
Jun 24 02:56 W 7 10 Mostly Clear FEW006 FEW200 56 54     93%     29.88 29.88      
Jun 24 01:56 WNW 10 10 Mostly Clear FEW006 FEW200 58 54     87%     29.89 29.89      
Jun 24 00:56 WNW 8 10 Mostly Clear FEW004 FEW200 57 54     89%     29.9 29.9      
Jun 23 23:56 WNW 8 10 Mostly Clear FEW004 FEW200 58 54     87%     29.91 29.91      
Jun 23 22:56 WNW 14 10 Mostly Clear FEW004 FEW200 58 54     87%     29.93 29.92      
Jun 23 21:56 WNW 14 10 Mostly Clear FEW004 FEW200 58 54     87%     29.92 29.92      
Jun 23 20:56 WNW 14 10 Mostly Clear FEW008 FEW200 61 54     78%     29.92 29.92      
Jun 23 19:56   10 Mostly Clear FEW008 FEW200 66 54     65%     29.91 29.91      
Jun 23 18:56 WNW 22 10 Mostly Clear and Windy FEW008 FEW200 67 54     63%     29.91 29.91      
Jun 23 17:56   10 Mostly Clear FEW008 FEW200 71 54     55%   70 29.91 29.91      
Jun 23 16:56 NW 18 10 Mostly Clear FEW008 FEW200 75 54     48%   74 29.91 29.91      
Jun 23 15:56 WNW 18 10 Mostly Clear FEW008 73 54     51%   72 29.92 29.92      
Jun 23 14:56   10 Mostly Clear FEW008 74 54     50%   73 29.94 29.93      
Jun 23 13:56 NW 15 10 Mostly Clear FEW008 78 56     47%   78 29.94 29.94      
Jun 23 12:56 WNW 9 10 Mostly Clear FEW008 77 56     48%   77 29.95 29.95      
Jun 23 11:56 N 8 10 Mostly Clear FEW010 75 59     57%   75 29.97 29.96      
Jun 23 10:56 NNE 6 10 Clear CLR 71 58     63%   71 29.96 29.96      
Jun 23 09:56 NNE 6 10 Clear CLR 69 56     63%     29.97 29.96      
Jun 23 08:56 Calm 9 Mostly Clear FEW006 66 53     63%     29.97 29.96      
Jun 23 07:56 WNW 6 9 Mostly Clear FEW006 61 53     75%     29.96 29.96      
Jun 23 06:56 W 7 9 Mostly Clear FEW007 58 52     81%     29.95 29.94      
Jun 23 05:56 W 7 8 Mostly Clear FEW010 56 52     87%     29.93 29.93      
Jun 23 04:56 W 8 6 Fog/Mist FEW011 55 52     89%     29.93 29.93      
Jun 23 03:56 W 9 6 Fog/Mist FEW010 56 52     87%     29.93 29.93      
Jun 23 02:56 W 8 6 Clear   56 52     87%     29.93 29.93      
Jun 23 01:56 WNW 9 5 Haze FEW010 58 52     81%     29.94 29.93      
Jun 23 00:56 W 13 5 Haze FEW010 58 51     78%     29.94 29.94      
Jun 22 23:56 WNW 9 6 Haze FEW180 59 51     75%     29.95 29.95      
Jun 22 22:56 W 9 6 Haze FEW006 FEW180 58 51     78%     29.95 29.95      
Jun 22 21:56 WNW 10 10 Mostly Clear FEW007 58 52     81%     29.95 29.95      
Jun 22 20:56 WNW 16 10 Mostly Clear FEW007 FEW200 60 52     75%     29.93 29.93      
Jun 22 19:56 NW 16 10 Mostly Clear FEW007 FEW200 64 53     67%     29.92 29.92      
May 15 07:56 S 7 10 Cloudy FEW013 BKN020 OVC024 57 46     67%     30.03 30.03      
May 15 01:56 SW 8 10 Mostly Cloudy FEW016 BKN019 BKN022 57 46     67%     30 30      
May 14 15:56 WSW 17 10 Mostly Clear FEW027 64 47     54%     29.98 29.98      
May 14 14:56 W 18 10 Mostly Clear FEW026 64 48     56%     29.99 29.99      
May 14 13:56 WSW 17 10 Partly Cloudy SCT026 64 48     56%     30 30      
May 14 13:46   10 Partly Cloudy SCT026 64 47     54%     30        
May 13 13:56   10 Mostly Clear FEW017 66 48     52%     30.01 30.01      
Notice The following observation data may not be complete
May 12 13:56 SW 13 10 Mostly Clear FEW015   47      %     29.88 29.88      
Notice The following observation data may not be complete
May 12 06:56 W 11 10 Clear CLR   42      %     29.83 29.83      
May 12 00:56 WNW 7 10 Clear CLR 71 38     30%   69 29.81 29.8      
May 11 22:56   10 Clear CLR 67 41     39%     29.8 29.8      
Jun 12 03:56 W 15 10 Mostly Clear FEW012 53 48     83%     30.02 30.02      
Jun 11 22:56 W 11 10 Clear CLR 55 49     80%     30.01 30.01      
Jun 11 08:56   10 Mostly Clear FEW022 58 44     60%     29.95 29.95      
Jun 10 16:56 W 17 10 Mostly Clear FEW020 FEW033 65 46     50%     29.96 29.96      
Jun 09 23:56 W 15 10 Mostly Clear FEW013 56 50     80%     30 29.99      
Jun 09 19:56 W 15 10 Mostly Clear FEW021 59 49     69%     29.97 29.97      
Jun 09 09:23 W 15 10 Cloudy SCT007 BKN018 OVC039 58 51     78%     29.97        
Jun 09 02:56 W 6 10 Mostly Cloudy FEW011 SCT041 BKN090 60 55     83%     29.96 29.95      
Jun 08 16:56 SSW 7 10 Cloudy BKN018 OVC025 66 57     73%     30 29.99     0
Jun 08 08:56 SSE 9 10 Cloudy FEW014 SCT024 OVC034 60 52     75%     29.99 29.98 0    
Jun 08 06:56 SSE 14 10 Cloudy FEW014 OVC043 61 51     70%     29.95 29.95      
Jun 08 03:56 S 9 10 Cloudy FEW055 BKN075 OVC100 60 49     67%     29.94 29.93      
Jun 07 21:56 SSW 5 10 Cloudy FEW013 SCT110 OVC150 61 44     54%     29.94 29.94      
Jun 06 07:56 WNW 7 10 Mostly Clear FEW008 57 49     74%     29.94 29.94